Onweer radar Meer informatie blitzortung!


Regen radar Meer informatie rain snow radar


Bezoek onze andere website:

Template documentation
and downloads

And another site



15 daagse weersverwachting Liverpool (GB)

  • Overzicht
  • Per uur
  • 15 dagen
  • Extra
  • Vergelijk
  • Kaarten
  • Dagkaart
  • Meer »
  • Info
  • Statistieken
  • Directe link
    Temp 6h Neerslag Wind  
 08:16     16:31    Daglengte: 8:15 Vandaag
12:00
10°
9.6 mm
7
18:00
10°
20.1 mm
7
 08:14     16:33    Daglengte: 8:19 Morgen
00:00
11°
22.9 mm
6
06:00
10°
22.1 mm
6
12:00
25.0 mm
4
18:00
31.2 mm
5
 08:13     16:35    Daglengte: 8:22 Donderdag 21 Jan
00:00
44.8 mm
8
06:00
19.3 mm
8
12:00
 
10
18:00
42.8 mm
9
 08:12     16:37    Daglengte: 8:25 Vrijdag 22 Jan
00:00
54.3 mm
9
06:00
53.9 mm
7
Locatie info
Region: England
Latitude: 53.4101°N
Longitude: -2.9784°E
30 masl
Postcode: L3 8
Temp/Neerslag /Baro Onweer/DauwpuntSneeuw
    Temp Baro 1h Neerslag Dauwpunt Wind UV BewolkingSneeuw  
 08:16     16:31    Daglengte: 8:15 Vandaag
11:00
10°
998.8 hPa 7.1 mm
48%
7.9°
7
Windvlaag: 4.2 m/s
90%
12:00
10°
998.1 hPa 2.4 mm
82%
7.8°
7
Windvlaag: 4.4 m/s
91%
13:00
10°
996.9 hPa 2.6 mm
81%
7.3°
6
Windvlaag: 4.7 m/s
91%
14:00
10°
995.4 hPa 4.1 mm
82%
8.2°
6
Windvlaag: 5.5 m/s
91%
15:00
10°
994.3 hPa 3.4 mm
81%
8.5°
7
Windvlaag: 5.7 m/s
91%
16:00
10°
993.3 hPa 3.8 mm
82%
8.4°
7
Windvlaag: 5.3 m/s
90%
17:00
10°
992.4 hPa 2.8 mm
82%
8.4°
7
Windvlaag: 5.1 m/s
89%
18:00
10°
991.4 hPa 3.4 mm
82%
8.4°
7
Windvlaag: 5.5 m/s
90%
19:00
10°
990.7 hPa 3.4 mm
82%
8.6°
6
Windvlaag: 5.5 m/s
91%
20:00
10°
989.7 hPa 4.5 mm
82%
8.7°
6
Windvlaag: 4.6 m/s
91%
21:00
11°
989.0 hPa 3.2 mm
82%
8.9°
6
Windvlaag: 4.3 m/s
91%
22:00
11°
988.4 hPa 3.3 mm
82%
8.8°
6
Windvlaag: 5.1 m/s
90%
23:00
11°
987.8 hPa 4.2 mm
81%
9.1°
6
Windvlaag: 4.5 m/s
91%
 08:14     16:33    Daglengte: 8:19 Morgen
00:00
11°
987.2 hPa 4.3 mm
80%
9.1°
6
Windvlaag: 4.5 m/s
91%
01:00
11°
986.4 hPa 4.3 mm
80%
9.0°
6
Windvlaag: 4.9 m/s
91%
02:00
11°
985.7 hPa 3.2 mm
77%
9.2°
5
Windvlaag: 4.4 m/s
91%
03:00
11°
985.1 hPa 4.8 mm
34%
9.0°
6
Windvlaag: 4.5 m/s
91%
04:00
11°
984.4 hPa 3.1 mm
82%
9.1°
6
Windvlaag: 4.8 m/s
91%
05:00
10°
983.6 hPa 3.3 mm
82%
8.8°
5
Windvlaag: 4.5 m/s
91%
06:00
10°
983.1 hPa 3.5 mm
82%
8.4°
6
Windvlaag: 4.3 m/s
91%
07:00
10°
982.7 hPa 3.9 mm
82%
8.5°
5
Windvlaag: 4.2 m/s
91%
08:00
10°
Voelt als: 7.4°
982.2 hPa 3.9 mm
82%
8.5°
5
Windvlaag: 2.7 m/s
90%
09:00
10°
Voelt als: 7.2°
981.5 hPa 4.4 mm
82%
8.4°
6
Windvlaag: 2.4 m/s
91%
10:00
10°
Voelt als: 7.4°
980.9 hPa 4.4 mm
82%
8.5°
5
Windvlaag: 3.2 m/s
91%
11:00
10°
Voelt als: 7.4°
980.3 hPa 4.1 mm
82%
8.4°
4
Windvlaag: 3 m/s
91%
12:00
Voelt als: 7.1°
979.5 hPa 4.2 mm
82%
8.3°
4
Windvlaag: 3.4 m/s
91%
13:00
10°
Voelt als: 7.3°
978.3 hPa 4.6 mm
82%
8.4°
5
Windvlaag: 3.6 m/s
91%
14:00
10°
Voelt als: 7.1°
977.2 hPa 5.1 mm
82%
8.1°
5
Windvlaag: 4 m/s
91% warningclass
15:00
10°
Voelt als: 7.2°
976.4 hPa 4.1 mm
75%
8.1°
6
Windvlaag: 3.7 m/s
89%
16:00
10°
Voelt als: 7.0°
975.8 hPa 5.8 mm
72%
8.0°
6
Windvlaag: 3.8 m/s
91%
17:00
Voelt als: 6.2°
975.1 hPa 6.1 mm
82%
7.8°
6
Windvlaag: 3.5 m/s
91%
18:00
Voelt als: 4.0°
974.7 hPa 5.5 mm
82%
6.3°
5
Windvlaag: -1 m/s
90%
19:00
Voelt als: 2.5°
974.6 hPa 6.5 mm
82%
5.0°
5
Windvlaag: -0.2 m/s
91%
20:00
Voelt als: 1.3°
974.6 hPa 8.0 mm
82%
4.1°
5
Windvlaag: 0.1 m/s
91%
21:00
Voelt als: 0.7°
974.3 hPa 9.3 mm
82%
3.4°
6
Windvlaag: 0.9 m/s
91%1 cm
22:00
Voelt als: -0.0°
974.4 hPa 7.4 mm
82%
3.1°
6
Windvlaag: 1 m/s
91%2 cm
23:00
Voelt als: -0.3°
974.2 hPa 6.9 mm
82%
2.3°
8
Windvlaag: 1 m/s
91%2 cm
 08:13     16:35    Daglengte: 8:22 Donderdag 21 Jan
00:00
Voelt als: -0.2°
974.1 hPa 6.7 mm
82%
3.0°
8
Windvlaag: 2.1 m/s
60%3 cm
01:00
Voelt als: -1.1°
974.6 hPa 9.5 mm
75%
2.4°
9
Windvlaag: 2.3 m/s
81%3 cm
02:00
Voelt als: -1.1°
975.2 hPa 9.8 mm
75%
1.2°
9
Windvlaag: 3.5 m/s
81%4 cm
03:00
Voelt als: -1.2°
976.2 hPa
72%
0.9°
9
Windvlaag: 4.4 m/s
46%5 cm
04:00
Voelt als: -1.1°
976.9 hPa
62%
1.3°
9
Windvlaag: 4.5 m/s
12%5 cm
05:00
Voelt als: -1.1°
977.7 hPa
60%
2.2°
8
Windvlaag: 4.8 m/s
11%4 cm
06:00
Voelt als: -1.1°
977.9 hPa
21%
1.2°
8
Windvlaag: 5.7 m/s
39%4 cm
07:00
Voelt als: -1.0°
978.0 hPa
65%
1.4°
8
Windvlaag: 6.8 m/s
49%4 cm
08:00
Voelt als: -0.8°
977.9 hPa
66%
1.4°
8
Windvlaag: 7.4 m/s
48%3 cm
09:00
Voelt als: -1.2°
976.2 hPa
78%
1.4°
8
Windvlaag: 7.5 m/s
48%3 cm
10:00
Voelt als: -0.7°
976.0 hPa
77%
1.4°
9
Windvlaag: 7.6 m/s
35%3 cm
11:00
Voelt als: -0.1°
976.1 hPa
70%
1.2°
10
Windvlaag: 7 m/s
38%3 cm
12:00
Voelt als: 0.3°
976.6 hPa
95%
1.3°
10
Windvlaag: 6.2 m/s
51%3 cm
13:00
Voelt als: 0.3°
976.9 hPa 10.6 mm
100%
1.2°
10
Windvlaag: 6 m/s
60%2 cm
14:00
Voelt als: 0.2°
977.2 hPa 10.8 mm
97%
1.5°
10
Windvlaag: 5.8 m/s
78%2 cm
15:00
Voelt als: -0.1°
977.5 hPa 10.7 mm
96%
1.8°
11
Windvlaag: 4.9 m/s
62%2 cm
16:00
Voelt als: -0.0°
978.1 hPa
86%
2.5°
10
Windvlaag: 4.4 m/s
48%2 cm
17:00
Voelt als: 0.1°
978.6 hPa
82%
2.6°
9
Windvlaag: 3.8 m/s
43%2 cm
18:00
Voelt als: 0.1°
979.4 hPa 10.8 mm
89%
2.6°
9
Windvlaag: 3.4 m/s
61%2 cm
19:00
Voelt als: 0.3°
979.8 hPa
91%
2.5°
9
Windvlaag: 3.3 m/s
57%2 cm
20:00
Voelt als: 0.3°
980.2 hPa 10.9 mm
95%
2.5°
9
Windvlaag: 2.6 m/s
55%2 cm
21:00
Voelt als: 0.4°
980.7 hPa 10.9 mm
94%
2.5°
9
Windvlaag: 2.3 m/s
77%2 cm
22:00
Voelt als: 0.2°
981.1 hPa 10.9 mm
99%
2.4°
9
Windvlaag: 1.8 m/s
61%1 cm
23:00
Voelt als: 0.0°
981.6 hPa 10.9 mm
100%
2.1°
9
Windvlaag: 1.1 m/s
50%1 cm
 08:12     16:37    Daglengte: 8:25 Vrijdag 22 Jan
00:00
Voelt als: -0.1°
982.2 hPa 10.9 mm
100%
2.4°
9
Windvlaag: 1 m/s
40%1 cm
01:00
Voelt als: -0.1°
982.9 hPa 18.0 mm
100%
2.2°
9
Windvlaag: 0.9 m/s
43%1 cm
02:00
Voelt als: -0.0°
983.5 hPa 18.0 mm
100%
2.1°
8
Windvlaag: 0.5 m/s
41%1 cm
03:00
Voelt als: 0.0°
983.9 hPa 18.0 mm
99%
2.0°
8
Windvlaag: 0.7 m/s
42%1 cm
04:00
Voelt als: 0.1°
984.6 hPa
95%
1.8°
8
Windvlaag: 0.2 m/s
45%1 cm
05:00
Voelt als: 0.1°
985.2 hPa
94%
1.8°
7
Windvlaag: -0.5 m/s
42%1 cm
06:00
Voelt als: 0.3°
985.9 hPa
45%
1.7°
7
Windvlaag: -0.2 m/s
45%1 cm
07:00
Voelt als: 0.4°
988.0 hPa
85%
1.7°
6
Windvlaag: 8 m/s
62%1 cm
08:00
Voelt als: 0.4°
988.7 hPa
80%
1.8°
6
Windvlaag: 7.4 m/s
59%1 cm
09:00
Voelt als: 0.6°
989.3 hPa
84%
1.9°
6
Windvlaag: 7.7 m/s
61%1 cm
10:00
Voelt als: 0.8°
990.0 hPa
79%
1.8°
6
Windvlaag: 7.5 m/s
62%1 cm
Temp/Neerslag /Baro Onweer/DauwpuntSneeuw
    Temp Baro Neerslag Dauwpunt Wind BewolkingSneeuw  
 08:16     16:31    Daglengte: 8:15 Vandaag
12:00
10°
998.1 hPa 9.6 mm 7.8°
7
91%
15:00
10°
994.3 hPa 10.1 mm 8.5°
7
91%
18:00
10°
991.4 hPa 9.9 mm 8.4°
7
90%
21:00
11°
989.0 hPa 11.1 mm 8.9°
6
91%
 08:14     16:33    Daglengte: 8:19 Morgen
00:00
11°
987.2 hPa 11.9 mm 9.1°
6
91%
03:00
11°
985.1 hPa 12.2 mm 9.0°
6
91%
06:00
10°
983.1 hPa 9.9 mm 8.4°
6
91%
09:00
10°
Voelt als: 7.2°
981.5 hPa 12.3 mm 8.4°
6
91%
12:00
Voelt als: 7.1°
979.5 hPa 12.8 mm 8.3°
4
91%
15:00
10°
Voelt als: 7.2°
976.4 hPa 13.8 mm 8.1°
6
89%
18:00
Voelt als: 4.0°
974.7 hPa 17.4 mm 6.3°
5
90%
21:00
Voelt als: 0.7°
974.3 hPa 23.8 mm 3.4°
6
91%1 cm
 08:13     16:35    Daglengte: 8:22 Donderdag 21 Jan
00:00
Voelt als: -0.2°
974.1 hPa 21.0 mm 3.0°
8
60%3 cm
03:00
Voelt als: -1.2°
976.2 hPa 19.3 mm 0.9°
9
46%5 cm
06:00
Voelt als: -1.1°
977.9 hPa   1.2°
8
39%4 cm
09:00
Voelt als: -1.2°
976.2 hPa   1.4°
8
48%3 cm
12:00
Voelt als: 0.3°
976.6 hPa   1.3°
10
51%3 cm
15:00
Voelt als: -0.1°
977.5 hPa 32.0 mm 1.8°
11
62%2 cm
18:00
Voelt als: 0.1°
979.4 hPa 10.8 mm 2.6°
9
61%2 cm
21:00
Voelt als: 0.4°
980.7 hPa 21.7 mm 2.5°
9
77%2 cm
 08:12     16:37    Daglengte: 8:25 Vrijdag 22 Jan
00:00
Voelt als: -0.1°
982.2 hPa 32.6 mm 2.4°
9
40%1 cm
03:00
Voelt als: 0.0°
983.9 hPa 53.9 mm 2.0°
8
42%1 cm
06:00
Voelt als: 0.3°
985.9 hPa   1.7°
7
45%1 cm
09:00
Voelt als: 0.6°
989.3 hPa   1.9°
6
61%1 cm
12:00
Voelt als: 1.2°
991.2 hPa   2.3°
6
43%1 cm
15:00
Voelt als: -0.2°
993.4 hPa 52.6 mm 1.9°
5
49%
18:00
Voelt als: -1.0°
993.8 hPa 52.9 mm 1.5°
5
48%
21:00
Voelt als: -1.0°
994.1 hPa 53.0 mm 0.8°
4
38%
 08:10     16:38    Daglengte: 8:28 Zaterdag 23 Jan
00:00
Voelt als: -0.9°
994.4 hPa 53.3 mm -0.0°
3
28%
03:00
Voelt als: -2.0°
993.5 hPa 53.5 mm -1.0°
3
55%
06:00
-0°
Voelt als: -3.1°
992.6 hPa 53.6 mm -2.0°
2
82%
09:00
Voelt als: -1.4°
991.2 hPa 53.6 mm -1.0°
2
82%
12:00
Voelt als: 0.2°
989.8 hPa 53.8 mm 0.2°
2
83%
15:00
Voelt als: -1.2°
989.5 hPa 54.8 mm -0.1°
3
72%
18:00
Voelt als: -2.3°
989.3 hPa 56.0 mm -0.5°
4
61%
21:00
Voelt als: -2.3°
990.8 hPa 56.7 mm -0.5°
4
74%
 08:09     16:40    Daglengte: 8:31 Zondag 24 Jan
00:00
Voelt als: -2.3°
992.1 hPa 56.7 mm -0.4°
4
87%
03:00
Voelt als: -2.1°
994.0 hPa 56.7 mm -1.0°
4
51%
06:00
Voelt als: -2.0°
995.9 hPa 57.3 mm -1.5°
4
15%
09:00
Voelt als: -0.7°
997.4 hPa 58.3 mm -0.9°
4
53%
12:00
Voelt als: 0.7°
998.9 hPa 58.7 mm 0.0°
4
91%
15:00
Voelt als: -0.5°
998.7 hPa 58.7 mm -0.2°
4
80%
18:00
Voelt als: -1.8°
998.7 hPa 58.7 mm -0.4°
4
70%
21:00
Voelt als: -1.2°
999.7 hPa 58.9 mm 0.5°
5
55%
 08:08     16:42    Daglengte: 8:34 Maandag 25 Jan
00:00
Voelt als: -0.5°
1000.6 hPa 59.6 mm 1.4°
5
41%
03:00
Voelt als: -0.4°
1001.6 hPa 60.3 mm 1.4°
4
66%
06:00
Voelt als: 0.3°
1002.6 hPa 60.9 mm 1.4°
2
92%
09:00
Voelt als: 1.4°
1005.7 hPa 61.0 mm 1.8°
2
68%
12:00
Voelt als: 2.9°
1008.8 hPa 61.0 mm 2.2°
3
44%
15:00
Voelt als: 1.9°
1010.1 hPa 61.1 mm 2.4°
3
40%
18:00
Voelt als: 0.9°
1011.5 hPa 61.1 mm 2.5°
4
37%
21:00
Voelt als: 0.5°
1012.3 hPa 61.1 mm 1.4°
3
64%
 08:06     16:44    Daglengte: 8:38 Dinsdag 26 Jan
00:00
Voelt als: -0.0°
1012.9 hPa 61.7 mm 0.5°
3
92%
03:00
Voelt als: -0.6°
1011.5 hPa 67.4 mm 0.9°
3
92%
06:00
Voelt als: -0.6°
1010.3 hPa 71.2 mm 1.4°
4
92%
09:00
Voelt als: -0.9°
1007.4 hPa   2.1°
6
91%
12:00
Voelt als: -0.9°
1004.7 hPa 142.6 mm 2.7°
8
91%
18:00
Voelt als: 5.5°
995.7 hPa 142.6 mm 6.8°
6
32%
 08:05     16:46    Daglengte: 8:41 Woensdag 27 Jan
00:00
Voelt als: 5.4°
997.6 hPa 142.9 mm 6.4°
9
31%
06:00
Voelt als: 5.6°
997.8 hPa 143.2 mm 7.3°
8
92%
12:00
10°
998.7 hPa 143.4 mm 7.7°
7
92%
18:00
Voelt als: 5.1°
998.0 hPa 143.4 mm 5.9°
3
8%
 08:03     16:48    Daglengte: 8:45 Donderdag 28 Jan
00:00
Voelt als: 5.3°
994.5 hPa 143.4 mm 5.9°
2
92%
06:00
Voelt als: 2.8°
984.7 hPa 150.7 mm 4.9°
6
92%
12:00
Voelt als: -0.7°
985.9 hPa 153.6 mm 3.2°
7
92%
18:00
Voelt als: 1.4°
995.7 hPa 153.7 mm 2.6°
5
82%
 08:01     16:50    Daglengte: 8:49 Vrijdag 29 Jan
00:00
10°
999.1 hPa 159.7 mm 8.6°
5
1%
06:00
Voelt als: 3.9°
1002.0 hPa 0.6 mm 4.2°
3
86%
12:00
Voelt als: 5.2°
1004.1 hPa 0.7 mm 4.6°
3
85%
18:00
Voelt als: 5.0°
1003.3 hPa 0.7 mm 4.9°
3
86%
 08:00     16:52    Daglengte: 8:52 Zaterdag 30 Jan
00:00
Voelt als: 4.5°
1002.8 hPa 1.1 mm 4.8°
4
86%
06:00
Voelt als: 4.1°
1000.7 hPa 1.1 mm 4.7°
4
85%
12:00
Voelt als: 5.1°
1000.1 hPa 1.4 mm 5.6°
5
87%
18:00
Voelt als: 4.8°
999.0 hPa 1.2 mm 4.8°
3
82%
 07:58     16:54    Daglengte: 8:56 Zondag 31 Jan
00:00
Voelt als: 3.5°
998.8 hPa 0.8 mm 4.3°
4
85%
06:00
Voelt als: 2.5°
998.6 hPa 1.1 mm 3.4°
4
77%
12:00
Voelt als: 3.2°
999.7 hPa 1.0 mm 3.7°
5
76%
18:00
Voelt als: 2.9°
999.2 hPa 0.4 mm 3.0°
4
72%
 07:56     16:56    Daglengte: 9:00 Maandag 01 Feb
00:00
Voelt als: 2.6°
1000.2 hPa 0.8 mm 2.5°
3
79%
06:00
Voelt als: 2.3°
999.4 hPa   2.2°
3
74%
12:00
Voelt als: 4.2°
999.3 hPa 0.8 mm 3.3°
3
78%
18:00
Voelt als: 4.1°
998.3 hPa 2.1 mm 2.9°
2
78%
 07:55     16:58    Daglengte: 9:03 Dinsdag 02 Feb
00:00
Voelt als: 3.5°
999.3 hPa 1.1 mm 2.1°
1
76%
06:00
Voelt als: 2.6°
999.5 hPa 0.8 mm 1.9°
2
74%
12:00
Voelt als: 3.1°
1001.0 hPa 0.7 mm 2.6°
4
73%
18:00
Voelt als: 2.4°
1002.0 hPa 0.5 mm 1.9°
3
67%
 07:53     16:59    Daglengte: 9:06 Woensdag 03 Feb
00:00
Voelt als: 1.9°
1003.3 hPa 0.5 mm 1.3°
2
67%
06:00
Voelt als: 1.6°
1003.2 hPa 0.6 mm 1.0°
2
75%
  CAPE Lifted Index Hail Supercell Tornado SRH 3km CL BTM PRES CL TOP PRES Swiss DWD icon SMHI TS
 08:16     16:31    Daglengte: 8:15 Vandaag
11:00 0 J/kg 3.5 K 0 % 0 % 0 % 0 m²/s² 0 0 5.09 61
12:00 6 J/kg 4.3 K 0 % 0 % 0 % 0 m²/s² 0 0 4.72 61
13:00 0 J/kg 3.3 K 0 % 0 % 0 % 0 m²/s² 0 0 3.54 61
14:00 0 J/kg 3.0 K 0 % 0 % 0 % 0 m²/s² 0 0 3.21 61
15:00 0 J/kg 2.0 K 0 % 0 % 0 % 0 m²/s² 0 0 2.24 80
16:00 0 J/kg 1.4 K 0 % 0 % 0 % 0 m²/s² 0 0 1.49 3
17:00 0 J/kg 1.6 K 0 % 0 % 0 % 0 m²/s² 0 0 2.14 80
18:00 0 J/kg 1.3 K 0 % 0 % 0 % 0 m²/s² 0 0 1.57 61
19:00 0 J/kg 0.9 K 0 % 0 % 0 % 0 m²/s² 0 0 1.05 61
20:00 0 J/kg 1.0 K 0 % 0 % 0 % 0 m²/s² 0 0 1.24 61
21:00 0 J/kg 1.1 K 0 % 0 % 0 % 0 m²/s² 0 0 1.31 61
22:00 0 J/kg 1.0 K 0 % 0 % 0 % 0 m²/s² 0 0 1.12 80
23:00 0 J/kg 0.9 K 0 % 0 % 0 % 0 m²/s² 0 0 1.35 3
 08:14     16:33    Daglengte: 8:19 Morgen
00:00 0 J/kg 1.2 K 0 % 0 % 0 % 0 m²/s² 0 0 2.04 3
01:00 5 J/kg 1.1 K 0 % 0 % 0 % 0 m²/s² 0 0 1.94 3
02:00 3 J/kg 0.8 K 0 % 0 % 0 % 0 m²/s² 0 0 1.52 3
03:00 11 J/kg 0.9 K 0 % 0 % 0 % 0 m²/s² 0 0 1.74 3
04:00 19 J/kg 1.4 K 0 % 0 % 0 % 0 m²/s² 0 0 2.54 3
05:00 20 J/kg 1.9 K 0 % 0 % 0 % 0 m²/s² 0 0 3.04 61
06:00 1 J/kg 1.6 K 0 % 0 % 0 % 0 m²/s² 0 0 2.44 61
07:00 2 J/kg 2.0 K 0 % 0 % 0 % 0 m²/s² 0 0 2.63 61
08:00 2 J/kg 2.4 K 0 % 0 % 0 % 0 m²/s² 0 0 2.82 61
09:00 1 J/kg 2.5 K 0 % 0 % 0 % 0 m²/s² 0 0 2.83 61
10:00 0 J/kg 3.0 K 0 % 0 % 0 % 0 m²/s² 0 0 3.3 61
11:00 0 J/kg 3.6 K 0 % 0 % 0 % 0 m²/s² 0 0 3.9 61
12:00 0 J/kg 4.7 K 0 % 0 % 0 % 0 m²/s² 0 0 4.94 61
13:00 1 J/kg 4.9 K 0 % 0 % 0 % 0 m²/s² 0 0 5.14 80
14:00 2 J/kg 4.7 K 0 % 0 % 0 % 0 m²/s² 0 0 5.03 95
15:00 4 J/kg 4.2 K 0 % 0 % 0 % 0 m²/s² 0 0 4.5 3
16:00 8 J/kg 4.2 K 0 % 0 % 0 % 0 m²/s² 0 0 4.53 3
17:00 3 J/kg 3.4 K 0 % 0 % 0 % 0 m²/s² 0 0 4.21 3
18:00 8 J/kg 3.5 K 0 % 0 % 0 % 0 m²/s² 0 0 3.77 80
19:00 1 J/kg 3.6 K 0 % 0 % 0 % 0 m²/s² 0 0 3.93 63
20:00 3 J/kg 4.3 K 0 % 0 % 0 % 0 m²/s² 0 0 4.57 63
21:00 1 J/kg 5.3 K 0 % 0 % 0 % 0 m²/s² 0 0 6.14 61
22:00 0 J/kg 6.4 K 0 % 0 % 0 % 0 m²/s² 0 0 6.73 61
23:00 1 J/kg 7.4 K 0 % 0 % 0 % 0 m²/s² 0 0 7.79 61
 08:13     16:35    Daglengte: 8:22 Donderdag 21 Jan
00:00 3 J/kg 7.8 K 0 % 0 % 0 % 0 m²/s² 0 0 8.37 61
01:00 15 J/kg 7.3 K 0 % 0 % 0 % 0 m²/s² 0 0 7.78 80
02:00 7 J/kg 5.6 K 0 % 0 % 0 % 0 m²/s² 0 0 6.11 80
03:00 9 J/kg 5.1 K 0 % 0 % 0 % 0 m²/s² 0 0 5.73 2
04:00 28 J/kg 4.0 K 0 % 0 % 0 % 0 m²/s² 0 0 4.75 2
05:00 141 J/kg 2.8 K 0 % 0 % 0 % 0 m²/s² 0 0 4.9 2
06:00 88 J/kg 3.3 K 0 % 0 % 0 % 0 m²/s² 0 0 6.3 1
07:00 115 J/kg 2.6 K 0 % 0 % 0 % 0 m²/s² 0 0 6.02 2
08:00 113 J/kg 2.1 K 0 % 0 % 0 % 0 m²/s² 0 0 5.88 2
09:00 91 J/kg 2.0 K 0 % 0 % 0 % 0 m²/s² 0 0 4.76 2
10:00 123 J/kg 1.7 K 0 % 0 % 0 % 0 m²/s² 0 0 3.32 2
11:00 130 J/kg 1.5 K 0 % 0 % 0 % 0 m²/s² 0 0 2.85 2
12:00 92 J/kg 1.7 K 0 % 0 % 0 % 0 m²/s² 0 0 2.36 2
13:00 45 J/kg 1.9 K 0 % 0 % 0 % 0 m²/s² 0 0 2.5 3
14:00 54 J/kg 1.3 K 0 % 0 % 0 % 0 m²/s² 0 0 1.99 3
15:00 66 J/kg 1.0 K 0 % 0 % 0 % 0 m²/s² 0 0 1.6 2
16:00 131 J/kg 0.3 K 0 % 0 % 0 % 0 m²/s² 0 0 1.56 2
17:00 192 J/kg -0.3 K 0 % 0 % 0 % 0 m²/s² 0 0 2.13 2
18:00 160 J/kg -0.3 K 0 % 0 % 0 % 0 m²/s² 0 0 0.78 3
19:00 130 J/kg -0.2 K 0 % 0 % 0 % 0 m²/s² 0 0 1.03 80
20:00 196 J/kg -0.5 K 0 % 0 % 0 % 0 m²/s² 0 0 3.01 80
21:00 223 J/kg -0.8 K 0 % 0 % 0 % 0 m²/s² 0 0 0.46 80
22:00 255 J/kg -1.0 K 0 % 0 % 0 % 0 m²/s² 0 0 3.17 80
23:00 193 J/kg -0.8 K 0 % 0 % 0 % 0 m²/s² 0 0 4.24 80
 08:12     16:37    Daglengte: 8:25 Vrijdag 22 Jan
00:00 273 J/kg -1.3 K 0 % 0 % 0 % 0 m²/s² 0 0 3.47 80
01:00 255 J/kg -1.2 K 0 % 0 % 0 % 0 m²/s² 0 0 3.18 80
02:00 289 J/kg -1.3 K 0 % 0 % 0 % 0 m²/s² 0 0 1.16 80
03:00 283 J/kg -1.2 K 0 % 0 % 0 % 0 m²/s² 0 0 0.57 80
04:00 335 J/kg -1.8 K 0 % 0 % 0 % 0 m²/s² 0 0 -0.96 3
05:00 201 J/kg -0.9 K 0 % 0 % 0 % 0 m²/s² 0 0 -0.42 2
06:00 382 J/kg -1.9 K 0 % 0 % 0 % 0 m²/s² 0 0 -0.01 3
07:00 373 J/kg -2.0 K 0 % 0 % 0 % 0 m²/s² 0 0 -1.31 3
08:00 312 J/kg -1.5 K 0 % 0 % 0 % 0 m²/s² 0 0 -0.45 3
09:00 213 J/kg -0.9 K 0 % 0 % 0 % 0 m²/s² 0 0 -0.15 3
10:00 78 J/kg -0.2 K 0 % 0 % 0 % 0 m²/s² 0 0 2.68 3
Temp Baro Wind Neerslag
  EWN Forecast EWN WRFDA DWD ICON FMI HIRLAM MET Norway GFS
 08:16     16:31    Daglengte: 8:15 Vandaag
12:00 10.3° 998.1 hPa 7.5 m/s 9.6 mm 9.9° 995.9 hPa 7.4 m/s 32.0 mm 10.3° 998.2 hPa 5.3 m/s 7.6 mm 10.5° 998.9 hPa 9.4 m/s 0.0 mm 10.3° 998.3 hPa 7.4 m/s 9.7° 997.1 hPa 6.3 m/s
15:00 10.3° 994.3 hPa 6.8 m/s 10.1 mm 10.4° 991.1 hPa 7.0 m/s 49.8 mm 10.4° 995.0 hPa 5.7 m/s 0.8 mm 10.4° 995.5 hPa 10.4 m/s 0.0 mm 9.9° 993.9 hPa 5.4 m/s 9.6° 992.3 hPa 6.1 m/s
18:00 10.3° 991.4 hPa 6.7 m/s 9.9 mm 10.1° 989.5 hPa 5.0 m/s 51.0 mm 10.2° 990.6 hPa 5.2 m/s 1.8 mm 10.3° 993.5 hPa 7.7 m/s 0.0 mm 10.2° 991.5 hPa 6.8 m/s 10.0° 990.1 hPa 5.7 m/s
21:00 10.6° 989.0 hPa 6.2 m/s 11.1 mm 10.1° 986.2 hPa 4.6 m/s 52.1 mm 10.8° 987.6 hPa 5.0 m/s 4.5 mm 11.0° 991.2 hPa 9.3 m/s 0.0 mm 10.4° 989.0 hPa 6.8 m/s 10.0° 987.7 hPa 5.1 m/s
 08:14     16:33    Daglengte: 8:19 Morgen
00:00 10.7° 987.2 hPa 5.8 m/s 11.9 mm 10.1° 985.2 hPa 4.3 m/s 54.3 mm 10.9° 985.9 hPa 5.1 m/s 0.5 mm 10.9° 989.3 hPa 7.2 m/s 0.0 mm 10.5° 987.3 hPa 6.0 m/s 9.9° 986.4 hPa 4.8 m/s
03:00 10.7° 985.1 hPa 5.8 m/s 12.2 mm 9.9° 983.0 hPa 4.0 m/s 55.8 mm 10.8° 985.2 hPa 3.7 m/s 0.2 mm 10.9° 987.4 hPa 7.0 m/s 0.0 mm 10.4° 984.9 hPa 5.9 m/s 9.7° 984.5 hPa 4.6 m/s
06:00 10.1° 983.1 hPa 5.6 m/s 9.9 mm 9.2° 982.1 hPa 2.1 m/s 58.3 mm 10.1° 983.0 hPa 2.9 m/s 1.9 mm 10.7° 985.8 hPa 6.4 m/s 0.0 mm 10.0° 982.9 hPa 6.3 m/s 9.9° 983.4 hPa 4.7 m/s
09:00 9.9° 981.5 hPa 5.6 m/s 12.3 mm 7.5° 980.3 hPa 2.1 m/s 63.6 mm 10.1° 980.5 hPa 3.9 m/s 5.9 mm 10.6° 985.2 hPa 6.3 m/s 0.0 mm 9.9° 981.8 hPa 5.9 m/s 9.6° 981.7 hPa 4.8 m/s
12:00 9.4° 979.5 hPa 4.3 m/s 12.8 mm 6.1° 979.2 hPa 3.3 m/s 70.0 mm 10.9° 977.8 hPa 5.4 m/s 3.2 mm 7.0° 984.3 hPa 4.3 m/s 0.0 mm 9.7° 979.3 hPa 2.8 m/s 9.1° 980.0 hPa 1.5 m/s
15:00 9.9° 976.4 hPa 5.8 m/s 13.8 mm 5.7° 975.9 hPa 3.3 m/s 78.2 mm 11.6° 975.1 hPa 5.4 m/s 1.8 mm 5.6° 982.8 hPa 5.1 m/s 0.0 mm 10.6° 976.0 hPa 6.4 m/s 8.1° 976.5 hPa 1.8 m/s
18:00 7.2° 974.7 hPa 5.2 m/s 17.4 mm 4.5° 974.3 hPa 5.1 m/s 87.7 mm 10.3° 971.9 hPa 5.9 m/s 0.8 mm 3.4° 983.1 hPa 5.6 m/s 0.0 mm 8.2° 974.0 hPa 2.7 m/s 8.6° 975.1 hPa 4.1 m/s
21:00 4.9° 974.3 hPa 6.2 m/s 23.8 mm 1.8° 970.9 hPa 4.3 m/s 110.4 mm 5.4° 971.0 hPa 6.1 m/s 11.5 mm 5.4° 983.7 hPa 5.0 m/s 0.0 mm 5.1° 973.6 hPa 6.6 m/s 5.5° 971.6 hPa 5.3 m/s
 08:13     16:35    Daglengte: 8:22 Donderdag 21 Jan
00:00 4.8° 974.1 hPa 8.0 m/s 21.0 mm 1.9° 968.6 hPa 7.4 m/s 128.5 mm 5.2° 972.1 hPa 7.2 m/s 2.9 mm 5.2° 985.3 hPa 4.7 m/s 0.0 mm 4.4° 973.1 hPa 9.7 m/s 4.1° 969.6 hPa 9.7 m/s
03:00 4.2° 976.2 hPa 9.0 m/s 19.3 mm 2.3° 970.3 hPa 9.7 m/s 143.9 mm 5.0° 975.6 hPa 9.6 m/s 1.1 mm 3.5° 986.0 hPa 4.4 m/s 0.0 mm 4.7° 975.1 hPa 11.1 m/s 4.6° 971.6 hPa 12.4 m/s
06:00 4.0° 977.9 hPa 8.1 m/s 0.0 mm 3.9° 972.7 hPa 9.9 m/s 152.0 mm 4.7° 976.7 hPa 7.0 m/s 0.0 mm 3.8° 987.0 hPa 4.8 m/s 0.0 mm 3.9° 978.2 hPa 8.5 m/s 4.3° 973.8 hPa 11.4 m/s
09:00 4.0° 976.2 hPa 8.3 m/s 0.0 mm 3.6° 973.6 hPa 9.6 m/s 153.0 mm 5.0° 975.9 hPa 6.8 m/s 0.1 mm 3.6° 979.2 hPa 7.3 m/s 4.4° 974.2 hPa 11.2 m/s
12:00 5.5° 976.6 hPa 9.9 m/s 0.0 mm 4.1° 976.3 hPa 9.1 m/s 155.0 mm 6.3° 974.1 hPa 11.2 m/s 0.1 mm 5.3° 979.8 hPa 9.3 m/s 5.2° 976.2 hPa 11.7 m/s
15:00 5.5° 977.5 hPa 11.2 m/s 32.0 mm 4.7° 977.4 hPa 8.0 m/s 158.3 mm 6.0° 975.1 hPa 9.5 m/s 0.4 mm 5.2° 980.4 hPa 11.7 m/s 3.6° 977.1 hPa 8.8 m/s
18:00 5.2° 979.4 hPa 9.2 m/s 10.8 mm 4.7° 979.4 hPa 5.6 m/s 159.4 mm 5.7° 975.8 hPa 9.7 m/s 0.3 mm 5.0° 983.1 hPa 8.9 m/s 5.3° 979.4 hPa 7.9 m/s
21:00 5.4° 980.7 hPa 8.9 m/s 21.7 mm 4.2° 980.5 hPa 5.6 m/s 159.6 mm 5.7° 976.8 hPa 10.7 m/s 1.2 mm 5.3° 985.1 hPa 8.3 m/s 4.7° 980.8 hPa 8.5 m/s
 08:12     16:37    Daglengte: 8:25 Vrijdag 22 Jan
00:00 5.0° 982.2 hPa 9.1 m/s 32.6 mm 4.1° 981.5 hPa 5.5 m/s 159.6 mm 5.5° 979.0 hPa 11.1 m/s 1.4 mm 4.8° 987.5 hPa 8.4 m/s 4.6° 983.1 hPa 9.2 m/s
03:00 4.9° 983.9 hPa 8.1 m/s 53.9 mm 4.5° 982.6 hPa 6.2 m/s 160.2 mm 5.7° 981.9 hPa 10.6 m/s 0.8 mm 4.7° 988.9 hPa 7.2 m/s 4.4° 985.4 hPa 9.3 m/s
06:00 4.8° 985.9 hPa 6.9 m/s 0.0 mm 4.3° 983.7 hPa 5.0 m/s 164.6 mm 5.6° 984.6 hPa 9.9 m/s 0.1 mm 4.5° 990.3 hPa 6.1 m/s 4.3° 987.8 hPa 8.6 m/s
09:00 4.8° 989.3 hPa 6.1 m/s 0.0 mm 4.1° 985.7 hPa 3.6 m/s 168.7 mm 5.2° 987.3 hPa 8.6 m/s 0.0 mm 4.8° 991.6 hPa 5.9 m/s 4.1° 990.2 hPa 6.9 m/s
12:00 5.2° 991.2 hPa 6.0 m/s 0.0 mm 5.4° 987.8 hPa 4.8 m/s 170.1 mm 5.4° 989.7 hPa 8.1 m/s 0.0 mm 5.1° 993.0 hPa 5.7 m/s 5.5° 992.0 hPa 6.6 m/s
15:00 3.9° 993.4 hPa 5.2 m/s 52.6 mm 3.8° 993.5 hPa 5.2 m/s 5.0° 992.3 hPa 5.2 m/s 52.6 mm
18:00 3.1° 993.8 hPa 4.8 m/s 52.9 mm 3.1° 993.8 hPa 4.9 m/s 3.0° 993.6 hPa 4.0 m/s 52.9 mm
21:00 2.6° 994.1 hPa 3.9 m/s 53.0 mm 2.7° 994.0 hPa 4.0 m/s 2.2° 994.1 hPa 3.3 m/s 53.0 mm
 08:10     16:38    Daglengte: 8:28 Zaterdag 23 Jan
00:00 2.2° 994.4 hPa 3.0 m/s 53.3 mm 2.2° 994.3 hPa 3.0 m/s 1.9° 995.0 hPa 2.8 m/s 53.3 mm
03:00 1.0° 993.5 hPa 2.7 m/s 53.5 mm 1.0° 993.3 hPa 2.7 m/s 1.8° 994.9 hPa 2.5 m/s 53.5 mm
06:00 -0.1° 992.6 hPa 2.4 m/s 53.6 mm -0.3° 992.4 hPa 2.4 m/s 1.8° 994.6 hPa 2.3 m/s 53.6 mm
09:00 0.8° 991.2 hPa 1.9 m/s 53.6 mm 0.7° 990.9 hPa 2.0 m/s 1.9° 994.7 hPa 1.1 m/s 53.6 mm
12:00 1.9° 989.8 hPa 1.6 m/s 53.8 mm 1.7° 989.4 hPa 1.6 m/s 3.7° 994.5 hPa 1.8 m/s 53.8 mm
15:00 1.8° 989.5 hPa 2.8 m/s 54.8 mm 1.6° 989.1 hPa 2.8 m/s 3.7° 993.6 hPa 2.5 m/s 54.8 mm
18:00 1.6° 989.3 hPa 4.0 m/s 56.0 mm 1.6° 988.9 hPa 4.1 m/s 2.1° 993.9 hPa 2.9 m/s 56.0 mm
21:00 1.7° 990.8 hPa 4.2 m/s 56.7 mm 1.8° 990.4 hPa 4.3 m/s 1.3° 994.7 hPa 2.9 m/s 56.7 mm
 08:09     16:40    Daglengte: 8:31 Zondag 24 Jan
00:00 1.8° 992.1 hPa 4.4 m/s 56.7 mm 1.9° 991.9 hPa 4.5 m/s 1.2° 994.9 hPa 3.6 m/s 56.7 mm
03:00 1.9° 994.0 hPa 4.2 m/s 56.7 mm 1.9° 994.0 hPa 4.2 m/s 1.6° 994.2 hPa 4.0 m/s 56.7 mm
06:00 1.8° 995.9 hPa 4.0 m/s 57.3 mm 1.9° 996.1 hPa 4.0 m/s 1.3° 993.9 hPa 4.1 m/s 57.3 mm
09:00 2.8° 997.4 hPa 3.8 m/s 58.3 mm 2.9° 997.7 hPa 3.7 m/s 1.9° 994.7 hPa 4.4 m/s 58.3 mm
12:00 3.9° 998.9 hPa 3.7 m/s 58.7 mm 3.9° 999.2 hPa 3.4 m/s 4.4° 995.1 hPa 6.9 m/s 58.7 mm
15:00 3.1° 998.7 hPa 4.1 m/s 58.7 mm 3.0° 999.1 hPa 3.6 m/s 4.6° 994.9 hPa 8.7 m/s 58.7 mm
18:00 2.2° 998.7 hPa 4.4 m/s 58.7 mm 2.0° 999.0 hPa 3.9 m/s 4.2° 995.6 hPa 9.7 m/s 58.7 mm
21:00 2.9° 999.7 hPa 4.9 m/s 58.9 mm 2.8° 999.9 hPa 4.5 m/s 3.9° 996.9 hPa 9.7 m/s 58.9 mm
 08:08     16:42    Daglengte: 8:34 Maandag 25 Jan
00:00 3.7° 1000.6 hPa 5.3 m/s 59.6 mm 3.6° 1000.8 hPa 5.0 m/s 4.8° 998.2 hPa 9.1 m/s 59.6 mm
03:00 2.9° 1001.6 hPa 3.5 m/s 60.3 mm 2.7° 1001.7 hPa 3.1 m/s 4.8° 1000.3 hPa 8.2 m/s 60.3 mm
06:00 2.0° 1002.6 hPa 1.7 m/s 60.9 mm 1.8° 1002.6 hPa 1.2 m/s 4.7° 1002.1 hPa 7.5 m/s 60.9 mm
09:00 3.6° 1005.7 hPa 2.3 m/s 61.0 mm 3.5° 1005.8 hPa 1.9 m/s 4.7° 1005.1 hPa 6.7 m/s 61.0 mm
12:00 5.3° 1008.8 hPa 2.9 m/s 61.0 mm 5.2° 1008.9 hPa 2.6 m/s 6.1° 1007.2 hPa 6.2 m/s 61.0 mm
15:00 4.7° 1010.1 hPa 3.4 m/s 61.1 mm 4.7° 1010.3 hPa 3.2 m/s 5.5° 1008.4 hPa 5.9 m/s 61.1 mm
18:00 4.1° 1011.5 hPa 3.7 m/s 61.1 mm 4.1° 1011.7 hPa 3.7 m/s 3.9° 1009.6 hPa 3.4 m/s 61.1 mm
21:00 3.4° 1012.3 hPa 3.0 m/s 61.1 mm 3.3° 1012.6 hPa 3.0 m/s 3.4° 1009.3 hPa 3.0 m/s 61.1 mm
 08:06     16:44    Daglengte: 8:38 Dinsdag 26 Jan
00:00 2.7° 1012.9 hPa 2.7 m/s 61.7 mm 2.6° 1013.5 hPa 2.4 m/s 3.6° 1006.0 hPa 6.0 m/s 61.7 mm
03:00 2.7° 1011.5 hPa 3.4 m/s 67.4 mm 2.5° 1012.7 hPa 2.8 m/s 4.5° 998.6 hPa 9.0 m/s 67.4 mm
06:00 2.8° 1010.3 hPa 3.6 m/s 71.2 mm 2.4° 1011.9 hPa 3.3 m/s 7.1° 993.1 hPa 7.0 m/s 71.2 mm
09:00 3.6° 1007.4 hPa 5.9 m/s 71.3 mm 3.0° 1008.7 hPa 5.4 m/s 9.4° 993.4 hPa 10.9 m/s 71.3 mm
12:00 4.1° 1004.7 hPa 7.9 m/s 71.3 mm 3.7° 1005.5 hPa 7.6 m/s 8.9° 995.6 hPa 10.7 m/s 71.3 mm
18:00 8.7° 995.7 hPa 6.3 m/s 71.3 mm 8.8° 995.4 hPa 6.1 m/s 8.1° 998.6 hPa 8.8 m/s 71.3 mm
 08:05     16:46    Daglengte: 8:41 Woensdag 27 Jan
00:00 9.1° 997.6 hPa 8.5 m/s 71.5 mm 9.4° 997.3 hPa 8.9 m/s 6.2° 1001.0 hPa 4.4 m/s 71.5 mm
06:00 9.1° 997.8 hPa 7.7 m/s 71.7 mm 9.2° 997.4 hPa 7.8 m/s 7.7° 1002.3 hPa 6.2 m/s 71.7 mm
12:00 10.0° 998.7 hPa 7.1 m/s 71.7 mm 10.1° 998.5 hPa 7.3 m/s 9.0° 1001.5 hPa 4.8 m/s 71.7 mm
18:00 7.3° 998.0 hPa 3.3 m/s 71.7 mm 7.3° 997.7 hPa 3.3 m/s 7.6° 1001.5 hPa 3.6 m/s 71.7 mm
 08:03     16:48    Daglengte: 8:45 Donderdag 28 Jan
00:00 6.6° 994.5 hPa 2.0 m/s 71.7 mm 6.7° 993.9 hPa 1.9 m/s 5.8° 1001.3 hPa 3.0 m/s 71.7 mm
06:00 6.5° 984.7 hPa 6.1 m/s 76.6 mm 6.5° 983.1 hPa 6.4 m/s 6.9° 1001.9 hPa 2.4 m/s 76.6 mm
12:00 4.1° 985.9 hPa 7.1 m/s 76.8 mm 3.7° 984.0 hPa 7.3 m/s 8.3° 1006.6 hPa 4.9 m/s 76.8 mm
18:00 4.9° 995.7 hPa 4.8 m/s 76.8 mm 4.7° 994.9 hPa 4.9 m/s 7.7° 1004.5 hPa 4.0 m/s 76.8 mm
 08:01     16:50    Daglengte: 8:49 Vrijdag 29 Jan
00:00 10.1° 999.1 hPa 5.0 m/s 80.1 mm 10.1° 999.1 hPa 5.0 m/s 80.1 mm
06:00 6.3° 1002.0 hPa 3.4 m/s 0.6 mm
12:00 7.3° 1004.1 hPa 3.1 m/s 0.7 mm
18:00 7.2° 1003.3 hPa 3.3 m/s 0.7 mm
 08:00     16:52    Daglengte: 8:52 Zaterdag 30 Jan
00:00 7.0° 1002.8 hPa 3.8 m/s 1.1 mm
06:00 6.7° 1000.7 hPa 3.8 m/s 1.1 mm
12:00 7.9° 1000.1 hPa 4.9 m/s 1.4 mm
18:00 6.9° 999.0 hPa 3.0 m/s 1.2 mm
 07:58     16:54    Daglengte: 8:56 Zondag 31 Jan
00:00 6.5° 998.8 hPa 4.5 m/s 0.8 mm
06:00 5.7° 998.6 hPa 4.4 m/s 1.1 mm
12:00 6.3° 999.7 hPa 4.6 m/s 1.0 mm
18:00 5.7° 999.2 hPa 3.6 m/s 0.4 mm
 07:56     16:56    Daglengte: 9:00 Maandag 01 Feb
00:00 5.3° 1000.2 hPa 3.3 m/s 0.8 mm
06:00 4.7° 999.4 hPa 2.8 m/s 0.0 mm
12:00 6.2° 999.3 hPa 2.6 m/s 0.8 mm
18:00 5.4° 998.3 hPa 1.7 m/s 2.1 mm
 07:55     16:58    Daglengte: 9:03 Dinsdag 02 Feb
00:00 4.6° 999.3 hPa 1.5 m/s 1.1 mm
06:00 4.4° 999.5 hPa 2.0 m/s 0.8 mm
12:00 5.8° 1001.0 hPa 3.5 m/s 0.7 mm
18:00 4.8° 1002.0 hPa 2.9 m/s 0.5 mm
 07:53     16:59    Daglengte: 9:06 Woensdag 03 Feb
00:00 4.1° 1003.3 hPa 2.4 m/s 0.5 mm
06:00 3.6° 1003.2 hPa 2.2 m/s 0.6 mm
FMI Hirlam - 7.5 km EWN WRFDA - 12 km DWD ICON - 7 km GFS - 25 km Basiskaart






























































Updatetijd (Europe/Amsterdam) Resolutie Lengte Stap
FMI Hirlam 06:15, 12:15, 18:15, 00:15 7.5 km 49h 1h
EWN WRFDA 09:30, 15:30, 21:30, 03:30 12 km 73h 1h
DWD ICON 10:45, 16:45, 22:45, 04:45 7 km 75h 1h
GFS 07:15, 13:15, 19:15, 01:15 25 km 237h 3h
30+ mm
25-30 mm
20-25 mm
15-20 mm
10-15 mm
6-10 mm
4-6 mm
2-4 mm
1-2 mm
0.5-1 mm
0.2-0.5 mm
0.1-0.2 mm
30+ mm
25-30 mm
20-25 mm
15-20 mm
10-15 mm
6-10 mm
4-6 mm
2-4 mm
1-2 mm
0.5-1 mm
0.2-0.5 mm
0.1-0.2 mm
Sneeuwval
Natte sneeuw
Hagel
Vorst
30+ mm
25-30 mm
20-25 mm
15-20 mm
10-15 mm
6-10 mm
4-6 mm
2-4 mm
1-2 mm
0.5-1 mm
0.2-0.5 mm
0.1-0.2 mm
Sneeuwval
Natte sneeuw
Hagel
Vorst
Onweer
50 mm
40 mm
30 mm
26 mm
22 mm
18 mm
14 mm
10 mm
9 mm
8 mm
7 mm
6 mm
5 mm
4.5 mm
4 mm
3.5 mm
3 mm
2.5 mm
2 mm
1.5 mm
1 mm
0.8 mm
0.6 mm
0.4 mm
0.2 mm
0.05 mm
35°
30°
25°
20°
15°
10°
-5°
-10°
-15°
-20°
-25°
-30°
-35°
33> m/s
29 m/s
25 m/s
21 m/s
17 m/s
14 m/s
11 m/s
8 m/s
5 m/s
3 m/s
0 m/s
2600 J/kg
2400 J/kg
2200 J/kg
2000 J/kg
1800 J/kg
1600 J/kg
1400 J/kg
1200 J/kg
1000 J/kg
800 J/kg
600 J/kg
400 J/kg
200 J/kg
70 dBZ
65 dBZ
60 dBZ
55 dBZ
50 dBZ
45 dBZ
40 dBZ
35 dBZ
30 dBZ
25 dBZ
20 dBZ
15 dBZ
10 dBZ
5 dBZ
-1 K
-2 K
-3 K
-4 K
-5 K
-6 K
-7 K
-8 K
-9 K
950 m²/s²
900 m²/s²
850 m²/s²
800 m²/s²
750 m²/s²
700 m²/s²
650 m²/s²
600 m²/s²
550 m²/s²
500 m²/s²
450 m²/s²
400 m²/s²
350 m²/s²